This is the latest recevied weather packets stored in our database for station/object NK7E-1. If no packets are shown the sender has not sent any weather packets the latest 10 day(s).
| Time | Temp. | Humidity | Pressure | Rain* | Wind** | Luminosity | Snow |
|---|---|---|---|---|---|---|---|
| 1777998000 | 17.78° C | 66% | 1013.6 hPa | 0 mm | - | - | - |
| 1777997400 | 17.78° C | 70% | 1013.7 hPa | 0 mm | - | - | - |
| 1777996802 | 17.22° C | 73% | 1013.8 hPa | 0 mm | - | - | - |
| 1777996201 | 17.22° C | 71% | 1013.6 hPa | 0 mm | - | - | - |
| 1777995601 | 17.22° C | 75% | 1013.7 hPa | 0 mm | - | - | - |
| 1777995001 | 16.67° C | 75% | 1013.5 hPa | 0 mm | - | - | - |
| 1777994400 | 16.67° C | 76% | 1013.5 hPa | 0 mm | - | - | - |
| 1777993801 | 16.11° C | 82% | 1013.5 hPa | 0 mm | - | - | - |
| 1777993200 | 16.11° C | 82% | 1013.6 hPa | 0 mm | - | - | - |
| 1777992599 | 16.11° C | 81% | 1013.4 hPa | 0 mm | - | - | - |
| 1777991999 | 16.11° C | 84% | 1013.4 hPa | 0 mm | - | - | - |
| 1777991399 | 15.56° C | 86% | 1013.3 hPa | 0 mm | - | - | - |
| 1777990799 | 15.56° C | 86% | 1013.3 hPa | 0 mm | - | - | - |
| 1777989601 | 15.56° C | 88% | 1013.2 hPa | 0 mm | - | - | - |
| 1777988999 | 15° C | 89% | 1013 hPa | 0 mm | - | - | - |
| 1777988399 | 15° C | 90% | 1012.9 hPa | 0 mm | - | - | - |
| 1777987799 | 15° C | 90% | 1012.7 hPa | 0 mm | - | - | - |
| 1777987199 | 15° C | 90% | 1012.7 hPa | 0 mm | - | - | - |
| 1777986599 | 15° C | 90% | 1012.7 hPa | 0 mm | - | - | - |
| 1777985999 | 15° C | 89% | 1012.6 hPa | 0 mm | - | - | - |
| 1777985399 | 15° C | 90% | 1012.5 hPa | 0 mm | - | - | - |
| 1777984799 | 15° C | 90% | 1012.3 hPa | 0 mm | - | - | - |
| 1777984199 | 14.44° C | 90% | 1012.5 hPa | 0 mm | - | - | - |
| 1777983599 | 14.44° C | 90% | 1012.2 hPa | 0 mm | - | - | - |
| 1777982999 | 15° C | 90% | 1012.4 hPa | 0 mm | - | - | - |
* Rain latest hour (hover to see other rain measurements)
** Current wind speed in m/s (hover to see current wind gust speed)